[[{"header":{"parameterUnit":"m.s-1","parameterCategory":1,"la1":30.2991,"la2":30.254,"lo1":-89.0895,"lo2":-89.0444,"dy":0.0017,"dx":0.0017,"nx":28,"ny":28,"refTime":"2024-08-03T03:00:00:Z","depth":0,"parameterNumber":2,"parameterNumberName":"U-component_of_WINDS"},"data":[0,0,0,0,0,0,0,0,0,0,0,0,0,0,0,0,0,0,0,0,0,0,0,0,0,0,0,0,0,0,0,0,0,0,0,0,0,0,0,0,0,0,0,0,0,0,0,0,0,0,0,0,0,0,0,0,0,0,0.2233,0.2234,0,0.2358,0.236,0.2361,0.2426,0.2426,0.2427,0.2427,0.2557,0.2561,0.2564,0,0,0,0,0,0,0,0,0,0,0,0,0,0.205,0.2053,0.2233,0.2234,0.2236,0.2358,0.236,0.2361,0.2426,0.2426,0.2427,0.2427,0.2556,0.256,0.2564,0,0,0,0,0,0,0,0,0,0,0,0,0,0.2148,0.2054,0.2233,0.2283,0.2289,0.2358,0.236,0.2362,0.2426,0.2426,0.2427,0.2427,0.2555,0.256,0.2565,0.2594,0,0,0.258,0.2583,0,0,0,0,0,0,0,0,0.2142,0.2155,0.2274,0.228,0.2286,0.2377,0.2343,0.244,0.2426,0.2374,0.2427,0.2427,0.2497,0.2507,0.253,0.26,0.2605,0.2581,0.2584,0.2586,0.2588,0,0,0,0,0,0,0,0.2135,0.215,0.2283,0.2276,0.2283,0.23,0.2314,0.2362,0.2434,0.2379,0.2384,0.2398,0.2501,0.2525,0.2534,0.2607,0.2581,0.2585,0.2588,0.259,0.2704,0.2704,0,0,0,0,0,0,0.212,0.2144,0.2279,0.2286,0.2213,0.2303,0.2318,0.2348,0.2433,0.2446,0.2397,0.24,0.2517,0.2528,0.2539,0.2577,0.2586,0.2591,0.2594,0.2704,0.2704,0.2704,0,0,0,0,0,0,0.2116,0.2132,0.2274,0.2216,0.2236,0.2306,0.2338,0.235,0.2375,0.2447,0.246,0.2409,0.2517,0.2532,0.2579,0.2582,0.2593,0.2598,0.2704,0.2704,0.2704,0.2654,0,0,0,0,0,0,0.2111,0.213,0.2142,0.2216,0.2238,0.2311,0.2338,0.2352,0.2383,0.2388,0.2462,0.2474,0.2518,0.2571,0.2584,0.259,0.2602,0.2704,0.2704,0.2704,0.2656,0.2652,0.2649,0,0,0,0,0,0.2104,0.2124,0.2142,0.2158,0.2254,0.2311,0.2324,0.2374,0.2383,0.2395,0.2441,0.2472,0.258,0.2575,0.259,0.2598,0.2705,0.2704,0.2704,0.2657,0.2653,0.265,0,0,0,0,0,0,0.205,0.2134,0.2156,0.22,0.2248,0.2322,0.234,0.2368,0.2415,0.2418,0.2477,0.2494,0.2535,0.2571,0.2565,0.2629,0.2645,0.2648,0.2604,0.2601,0.2597,0.2588,0.2606,0,0,0,0,0,0.2042,0.2081,0.2153,0.2185,0.2208,0.2269,0.2296,0.2329,0.2382,0.2403,0.2453,0.2502,0.2547,0.2576,0.2622,0.2661,0.2677,0.2673,0.267,0.2667,0.2669,0.2691,0.269,0.2704,0.2704,0.2704,0,0,0.2029,0.208,0.2101,0.2175,0.2217,0.2255,0.2286,0.2326,0.2355,0.2409,0.2456,0.2494,0.2554,0.2597,0.2618,0.2628,0.2668,0.2667,0.2664,0.2668,0.2691,0.2689,0.2688,0.2704,0.2704,0.2704,0,0,0.2023,0.2066,0.2096,0.2136,0.2197,0.2237,0.2244,0.2314,0.2341,0.2389,0.2429,0.2465,0.2541,0.2582,0.2612,0.2618,0.2648,0.2631,0.2615,0.2636,0.2635,0.2634,0.2635,0.2635,0.2633,0.2633,0.2633,0,0.1999,0.2058,0.2109,0.2146,0.2177,0.2225,0.2256,0.2293,0.2366,0.2386,0.2396,0.2491,0.2535,0.2587,0.2588,0.2612,0.2621,0.2624,0.263,0.263,0.263,0.2632,0.2633,0.2631,0.2631,0.2631,0.2631,0,0.2024,0.2065,0.2082,0.215,0.2183,0.2217,0.2272,0.2299,0.2329,0.2368,0.2415,0.2469,0.2525,0.254,0.257,0.2595,0.2599,0.2619,0.2637,0.2626,0.2628,0.263,0.2627,0.2628,0.2629,0.2629,0,0,0.1991,0.2083,0.2089,0.2119,0.2189,0.2221,0.2256,0.231,0.2332,0.238,0.241,0.2472,0.249,0.2524,0.2559,0.2577,0.2577,0.2595,0.2597,0.2589,0.2607,0.2591,0.2592,0.2596,0.2597,0.2597,0.2601,0,0.1995,0.206,0.2105,0.2153,0.219,0.2235,0.2266,0.2311,0.2348,0.2384,0.2425,0.2468,0.2488,0.2509,0.2529,0.2573,0.2581,0.2573,0.2626,0.2627,0.2609,0.2593,0.2578,0.258,0.2603,0.2603,0.2603,0,0.2009,0.2054,0.2105,0.2168,0.2185,0.2212,0.2263,0.2298,0.235,0.2375,0.2412,0.2447,0.2485,0.2498,0.2551,0.2545,0.2568,0.2593,0.2594,0.2601,0.2615,0.26,0.2582,0.2582,0.2606,0.2606,0.2606,0,0.1979,0.2051,0.2091,0.2115,0.219,0.2208,0.224,0.2292,0.232,0.2365,0.2384,0.2433,0.246,0.2497,0.2544,0.2549,0.2592,0.261,0.2614,0.2613,0.2622,0.2621,0.2607,0.2637,0.2637,0.2637,0.2637,0,0.1979,0.2008,0.2078,0.2102,0.2135,0.2186,0.2218,0.2254,0.2299,0.233,0.2373,0.2401,0.2462,0.2497,0.2534,0.2572,0.2584,0.2605,0.2615,0.2602,0.2599,0.2619,0.262,0.2637,0.2637,0.2637,0.2637,0,0.1951,0.1999,0.2044,0.211,0.2128,0.2149,0.2206,0.2231,0.2268,0.2307,0.2319,0.2379,0.2423,0.2473,0.2534,0.2559,0.2594,0.2608,0.2576,0.2581,0.2583,0.2581,0.2581,0.2584,0.2611,0.2611,0.261,0,0.1948,0.1972,0.2039,0.2063,0.2093,0.2131,0.216,0.221,0.2238,0.2297,0.2314,0.2361,0.2401,0.2469,0.2518,0.2564,0.258,0.2576,0.2587,0.2572,0.2579,0.2577,0.2579,0.2573,0.2573,0.2572,0.2572,0,0.1938,0.196,0.1999,0.2046,0.2079,0.2118,0.216,0.2177,0.2235,0.2264,0.2309,0.234,0.2401,0.2446,0.2498,0.2531,0.2561,0.2568,0.2571,0.2558,0.2539,0.2548,0.2567,0.2568,0.2569,0.2569,0.2569,0.2569,0.1923,0.1945,0.1995,0.2037,0.2073,0.211,0.2135,0.2175,0.2213,0.2266,0.2293,0.2337,0.2386,0.2458,0.249,0.2525,0.2535,0.254,0.2541,0.2542,0.2537,0.2532,0.2534,0.2534,0.2535,0.2535,0.2535,0,0.1915,0.1948,0.1986,0.2042,0.2074,0.2097,0.2144,0.2169,0.2207,0.225,0.2288,0.2338,0.2381,0.2432,0.2479,0.2497,0.2511,0.2507,0.2507,0.2513,0.2526,0.2518,0.2494,0.2494,0.2494,0.2494,0.2494,0.2494,0.1914,0.1952,0.1979,0.2034,0.2068,0.211,0.2134,0.2168,0.2202,0.2256,0.2292,0.2324,0.237,0.2419,0.246,0.2474,0.2489,0.248,0.2498,0.2509,0.2513,0.2516,0.2509,0.2483,0.2483,0.2482,0.2482,0.2482]},{"header":{"parameterUnit":"m.s-1","parameterCategory":1,"la1":30.2991,"la2":30.254,"lo1":-89.0895,"lo2":-89.0444,"dy":0.0017,"dx":0.0017,"nx":28,"ny":28,"refTime":"2024-08-03T03:00:00:Z","depth":0,"parameterNumber":3,"parameterNumberName":"V-component_of_WINDS"},"data":[0,0,0,0,0,0,0,0,0,0,0,0,0,0,0,0,0,0,0,0,0,0,0,0,0,0,0,0,0,0,0,0,0,0,0,0,0,0,0,0,0,0,0,0,0,0,0,0,0,0,0,0,0,0,0,0,0,0,2.7645,2.7645,0,2.7597,2.7597,2.7596,2.7609,2.761,2.7611,2.7612,2.7557,2.7554,2.7552,0,0,0,0,0,0,0,0,0,0,0,0,0,2.7741,2.7739,2.7645,2.7645,2.7644,2.7598,2.7597,2.7596,2.7609,2.761,2.7612,2.7613,2.7558,2.7555,2.7552,0,0,0,0,0,0,0,0,0,0,0,0,0,2.7697,2.7739,2.7645,2.7645,2.7645,2.7598,2.7597,2.7596,2.7609,2.761,2.7612,2.7613,2.7559,2.7555,2.7551,2.75,0,0,2.7541,2.7539,0,0,0,0,0,0,0,0,2.7699,2.7693,2.7646,2.7645,2.7644,2.7611,2.761,2.7564,2.7609,2.7622,2.7612,2.7614,2.7573,2.7568,2.7556,2.7497,2.7495,2.754,2.7538,2.7537,2.7535,0,0,0,0,0,0,0,2.7702,2.7695,2.7626,2.7645,2.7644,2.7645,2.7641,2.7602,2.759,2.7621,2.7622,2.7617,2.7573,2.756,2.7555,2.7494,2.754,2.7537,2.7535,2.7534,2.7388,2.7387,0,0,0,0,0,0,2.7707,2.7698,2.7628,2.7625,2.7676,2.7642,2.7637,2.762,2.759,2.7587,2.7615,2.7617,2.7565,2.7559,2.7553,2.7489,2.7537,2.7533,2.7531,2.739,2.7388,2.7386,0,0,0,0,0,0,2.7709,2.7701,2.763,2.7662,2.7653,2.7639,2.762,2.7618,2.7605,2.7586,2.7583,2.7604,2.7566,2.7558,2.7513,2.7487,2.7532,2.7528,2.7392,2.7389,2.7387,2.7362,0,0,0,0,0,0,2.7712,2.7701,2.7683,2.7661,2.7651,2.7592,2.7618,2.7616,2.7599,2.7602,2.7575,2.7572,2.7566,2.7518,2.7509,2.7483,2.7525,2.7394,2.7391,2.7388,2.7365,2.7358,2.7353,0,0,0,0,0,2.7715,2.7677,2.7682,2.7673,2.7628,2.7591,2.7585,2.7581,2.7597,2.7578,2.7565,2.7572,2.7492,2.7514,2.7504,2.7476,2.7396,2.7392,2.7388,2.7367,2.736,2.7353,0,0,0,0,0,0,2.7693,2.7674,2.7679,2.7633,2.7614,2.7593,2.7568,2.7574,2.7548,2.755,2.7546,2.7539,2.7493,2.748,2.7505,2.7423,2.7446,2.744,2.7433,2.7426,2.742,2.7423,2.7523,0,0,0,0,0,2.7684,2.7657,2.7641,2.7601,2.7592,2.7582,2.7565,2.7565,2.7543,2.7534,2.7519,2.7496,2.7466,2.7446,2.7417,2.7364,2.7356,2.7339,2.7334,2.7329,2.7323,2.7292,2.7284,2.7374,2.7374,2.7374,0,0,2.7662,2.7649,2.7632,2.7597,2.7581,2.7552,2.7574,2.7542,2.7519,2.7529,2.7485,2.7473,2.7447,2.7398,2.7375,2.7386,2.7297,2.7324,2.7321,2.7317,2.7287,2.7279,2.7271,2.7371,2.7372,2.7372,0,0,2.7608,2.7596,2.7561,2.7546,2.7524,2.7517,2.7509,2.7488,2.748,2.7438,2.7444,2.7415,2.7364,2.7344,2.7328,2.7267,2.7271,2.7257,2.7226,2.7196,2.7189,2.7183,2.7158,2.715,2.7252,2.7252,2.7252,0,2.7584,2.7542,2.7542,2.7509,2.7493,2.7503,2.7466,2.745,2.7419,2.7406,2.7419,2.7354,2.7337,2.7282,2.7267,2.7254,2.7242,2.7259,2.7191,2.7184,2.7178,2.7155,2.7146,2.725,2.725,2.7251,2.7251,0,2.7512,2.7482,2.7456,2.7427,2.7408,2.7373,2.7367,2.7347,2.7348,2.734,2.7294,2.7275,2.7242,2.7229,2.7229,2.7174,2.7181,2.7192,2.7214,2.7168,2.7146,2.7137,2.7248,2.7248,2.7249,2.7249,0,0,2.7441,2.7414,2.7404,2.739,2.7366,2.7342,2.7307,2.7277,2.7259,2.7237,2.7205,2.7162,2.7172,2.7153,2.7151,2.7125,2.7075,2.714,2.7139,2.7126,2.701,2.6999,2.6989,2.7079,2.7077,2.7076,2.7011,0,2.7383,2.7323,2.7323,2.7267,2.7238,2.7247,2.7217,2.7197,2.7189,2.7161,2.7151,2.7119,2.7137,2.7125,2.71,2.7087,2.7051,2.7092,2.7047,2.7045,2.7051,2.6978,2.6967,2.6907,2.7003,2.7001,2.7,0,2.7307,2.7284,2.7226,2.7206,2.7193,2.7166,2.7137,2.7112,2.709,2.7085,2.7064,2.7066,2.7028,2.7053,2.6999,2.7027,2.7008,2.6999,2.6997,2.699,2.7018,2.6967,2.6888,2.6878,2.6987,2.6988,2.6989,0,2.7258,2.7213,2.7172,2.716,2.7136,2.7116,2.7105,2.7084,2.7066,2.704,2.7027,2.6997,2.698,2.6955,2.6948,2.6967,2.6893,2.6918,2.6885,2.6885,2.6867,2.6868,2.6781,2.6859,2.686,2.686,2.686,0,2.7192,2.7155,2.715,2.7124,2.7083,2.7082,2.704,2.703,2.7012,2.6983,2.6989,2.696,2.6954,2.6924,2.6918,2.6873,2.6865,2.6858,2.6857,2.6856,2.6857,2.6842,2.6845,2.6857,2.6858,2.6858,2.6859,0,2.7129,2.7125,2.708,2.7062,2.7056,2.7026,2.7009,2.6983,2.6976,2.6939,2.693,2.6917,2.6882,2.6873,2.6831,2.6827,2.6773,2.6776,2.6781,2.678,2.6747,2.6749,2.6646,2.6631,2.6721,2.6721,2.672,0,2.7086,2.7059,2.7037,2.7019,2.7008,2.6978,2.696,2.6958,2.6938,2.691,2.6887,2.6853,2.6826,2.6769,2.6754,2.6722,2.6723,2.6689,2.6718,2.6718,2.6719,2.672,2.6716,2.6682,2.6682,2.6681,2.668,0,2.701,2.7009,2.6983,2.6956,2.6934,2.6912,2.6891,2.6875,2.687,2.6847,2.6812,2.6791,2.6749,2.6714,2.6681,2.6667,2.6671,2.6672,2.6662,2.666,2.6663,2.6658,2.6763,2.6673,2.6674,2.6675,2.6675,2.6675,2.6954,2.6929,2.691,2.6881,2.6865,2.6845,2.682,2.681,2.6782,2.6749,2.6749,2.671,2.6687,2.6644,2.6628,2.6596,2.6606,2.6592,2.6588,2.6584,2.658,2.667,2.659,2.659,2.6591,2.6591,2.6591,0,2.6875,2.6864,2.6837,2.6808,2.6784,2.6794,2.6771,2.675,2.6717,2.6696,2.667,2.6629,2.6595,2.6579,2.6545,2.6522,2.6523,2.6513,2.6513,2.6509,2.6575,2.6586,2.6513,2.6513,2.6513,2.6513,2.6513,2.6513,2.6831,2.679,2.6786,2.6736,2.6724,2.6688,2.6674,2.6655,2.6638,2.6593,2.6566,2.6557,2.6537,2.6501,2.647,2.6466,2.6452,2.644,2.6436,2.6497,2.6505,2.6513,2.6522,2.6438,2.6438,2.6373,2.6373,2.6372]}]]